2019-348T13:51:29.795,   1, 180,   1,   120,   4,          0,     46.364,  99218.184,    90.632,   -17.077,    23.961,   246.659, 2, 5.486E-04, -1.00,   2,  2.545E-03,  6.133E-05,  1.645E-13,  1.521E-14,  4.034E+02,  3.731E+01, 255
2019-348T13:53:29.797,   1, 180,   1,   120,   4,          0,     46.364,  99218.184,    90.627,   -17.077,    23.961,   245.449, 2, 5.486E-04, -1.00,   2,  2.446E-03,  6.170E-05,  3.747E-14,  1.422E-14,  9.564E+01,  3.629E+01, 255
2019-348T13:55:29.798,   1, 180,   1,   120,   4,          0,     46.364,  99218.184,    90.623,   -17.076,    23.961,   244.240, 2, 5.486E-04, -1.00,   2,  2.727E-03,  6.254E-05,  1.384E-13,  1.496E-14,  3.167E+02,  3.424E+01, 255
2019-348T14:31:29.822,   1, 180,   1,   120,   4,          0,     46.364,  99218.184,    90.540,   -17.063,    23.960,   222.472, 2, 5.486E-04, -1.00,   2,  3.192E-03,  6.837E-05,  6.875E-14,  1.523E-14,  1.344E+02,  2.977E+01, 255
2019-348T14:33:29.824,   1, 180,   1,   120,   4,          0,     46.364,  99218.184,    90.536,   -17.063,    23.960,   221.263, 2, 5.486E-04, -1.00,   2,  3.210E-03,  6.722E-05,  9.793E-14,  1.473E-14,  1.904E+02,  2.864E+01, 255
2019-348T14:35:29.825,   1, 180,   1,   120,   4,          0,     46.364,  99218.184,    90.531,   -17.062,    23.960,   220.054, 2, 5.486E-04, -1.00,   2,  3.288E-03,  6.775E-05,  1.575E-13,  1.537E-14,  2.990E+02,  2.918E+01, 255
2019-348T14:37:29.827,   1, 180,   1,   120,   4,          0,     46.364,  99218.184,    90.527,   -17.061,    23.960,   218.845, 2, 5.486E-04, -1.00,   2,  3.109E-03,  6.495E-05,  1.357E-13,  1.515E-14,  2.724E+02,  3.041E+01, 255
2019-348T14:39:29.828,   1, 180,   1,   120,   4,          0,     46.364,  99218.184,    90.522,   -17.061,    23.960,   217.635, 2, 5.486E-04, -1.00,   2,  3.867E-03,  6.986E-05,  2.044E-13,  1.483E-14,  3.299E+02,  2.393E+01, 255
2019-348T14:41:29.829,   1, 180,   1,   120,   4,          0,     46.364,  99218.184,    90.518,   -17.060,    23.960,   216.426, 2, 5.486E-04, -1.00,   2,  3.813E-03,  6.952E-05,  1.438E-13,  1.492E-14,  2.353E+02,  2.442E+01, 255
2019-348T14:43:29.831,   1, 180,   1,   120,   4,          0,     46.364,  99218.184,    90.513,   -17.059,    23.960,   215.217, 2, 5.486E-04, -1.00,   2,  3.831E-03,  6.940E-05,  1.487E-13,  1.475E-14,  2.423E+02,  2.403E+01, 255
2019-348T14:47:29.833,   1, 180,   1,   120,   4,          0,     46.364,  99218.184,    90.504,   -17.058,    23.960,   212.798, 2, 5.486E-04, -1.00,   2,  3.446E-03,  6.834E-05,  5.826E-14,  1.475E-14,  1.055E+02,  2.671E+01, 255
2019-348T14:49:29.835,   1, 180,   1,   120,   4,          0,     46.364,  99218.184,    90.499,   -17.057,    23.960,   211.589, 2, 5.486E-04, -1.00,   2,  3.866E-03,  7.080E-05,  1.625E-13,  1.522E-14,  2.624E+02,  2.457E+01, 255
2019-348T14:51:29.836,   1, 180,   1,   120,   4,          0,     46.364,  99218.184,    90.495,   -17.057,    23.960,   210.379, 2, 5.486E-04, -1.00,   2,  4.547E-03,  7.488E-05,  2.640E-13,  1.547E-14,  3.624E+02,  2.123E+01, 255
2019-348T14:53:29.838,   1, 180,   1,   120,   4,          0,     46.364,  99218.184,    90.490,   -17.056,    23.960,   209.170, 2, 5.486E-04, -1.00,   2,  4.136E-03,  6.945E-05,  1.088E-13,  1.456E-14,  1.642E+02,  2.197E+01, 255
2019-348T14:55:29.839,   1, 180,   1,   120,   4,          0,     46.364,  99218.184,    90.485,   -17.055,    23.960,   207.961, 2, 5.486E-04, -1.00,   2,  4.023E-03,  7.190E-05,  1.902E-13,  1.559E-14,  2.951E+02,  2.420E+01, 255
2019-348T14:57:29.840,   1, 180,   1,   120,   4,          0,     46.364,  99218.184,    90.481,   -17.055,    23.960,   206.752, 2, 5.486E-04, -1.00,   2,  3.401E-03,  6.845E-05,  1.139E-13,  1.551E-14,  2.091E+02,  2.846E+01, 255
2019-348T14:59:29.842,   1, 180,   1,   120,   4,          0,     46.364,  99218.184,    90.476,   -17.054,    23.960,   205.542, 2, 5.486E-04, -1.00,   2,  3.749E-03,  6.961E-05,  2.126E-13,  1.535E-14,  3.539E+02,  2.555E+01, 255
2019-348T15:01:29.843,   1, 180,   1,   120,   4,          0,     46.364,  99218.184,    90.472,   -17.053,    23.960,   204.333, 2, 5.486E-04, -1.00,   2,  3.804E-03,  6.939E-05,  1.494E-13,  1.484E-14,  2.452E+02,  2.435E+01, 255
2019-348T15:03:29.844,   1, 180,   1,   120,   4,          0,     46.364,  99218.184,    90.467,   -17.053,    23.960,   203.124, 2, 5.486E-04, -1.00,   2,  4.628E-03,  7.298E-05,  1.234E-13,  1.446E-14,  1.664E+02,  1.950E+01, 255
2019-348T15:05:29.846,   1, 180,   1,   120,   4,          0,     46.364,  99218.184,    90.462,   -17.052,    23.960,   201.914, 2, 5.486E-04, -1.00,   2,  4.349E-03,  7.163E-05,  1.873E-13,  1.534E-14,  2.687E+02,  2.201E+01, 255
2019-348T15:07:29.847,   1, 180,   1,   120,   4,          0,     46.364,  99218.184,    90.458,   -17.051,    23.960,   200.705, 2, 5.486E-04, -1.00,   2,  4.009E-03,  7.062E-05,  1.448E-13,  1.530E-14,  2.254E+02,  2.381E+01, 255
2019-348T15:09:29.848,   1, 180,   1,   120,   4,          0,     46.364,  99218.184,    90.453,   -17.050,    23.960,   199.496, 2, 5.486E-04, -1.00,   2,  4.043E-03,  7.114E-05,  2.102E-13,  1.580E-14,  3.246E+02,  2.439E+01, 255
2019-348T15:11:29.850,   1, 180,   1,   120,   4,          0,     46.364,  99218.184,    90.449,   -17.050,    23.960,   198.286, 2, 5.486E-04, -1.00,   2,  4.093E-03,  7.233E-05,  3.405E-14,  1.468E-14,  5.191E+01,  2.239E+01, 255
2019-348T15:13:29.851,   1, 180,   1,   120,   4,          0,     46.364,  99218.184,    90.444,   -17.049,    23.960,   197.077, 2, 5.486E-04, -1.00,   2,  5.209E-03,  7.660E-05,  1.963E-13,  1.494E-14,  2.353E+02,  1.790E+01, 255
2019-348T15:15:29.853,   1, 180,   1,   120,   4,          0,     46.364,  99218.184,    90.439,   -17.048,    23.960,   195.868, 2, 5.486E-04, -1.00,   2,  4.955E-03,  7.734E-05,  2.113E-13,  1.529E-14,  2.662E+02,  1.925E+01, 255
2019-348T15:17:29.854,   1, 180,   1,   120,   4,          0,     46.364,  99218.184,    90.435,   -17.048,    23.960,   194.658, 2, 5.486E-04, -1.00,   2,  4.866E-03,  7.902E-05,  1.448E-13,  1.531E-14,  1.858E+02,  1.964E+01, 255
2019-348T15:19:29.855,   1, 180,   1,   120,   4,          0,     46.364,  99218.184,    90.430,   -17.047,    23.959,   193.449, 2, 5.486E-04, -1.00,   2,  4.621E-03,  7.690E-05,  1.182E-13,  1.491E-14,  1.596E+02,  2.014E+01, 255
2019-348T15:21:29.857,   1, 180,   1,   120,   4,          0,     46.364,  99218.184,    90.426,   -17.046,    23.959,   192.240, 2, 5.486E-04, -1.00,   2,  4.756E-03,  7.861E-05,  1.638E-13,  1.542E-14,  2.150E+02,  2.024E+01, 255
2019-348T15:25:29.859,   1, 180,   1,   120,   4,          0,     46.364,  99218.184,    90.416,   -17.045,    23.959,   189.821, 2, 5.486E-04, -1.00,   2,  5.176E-03,  7.772E-05,  1.983E-13,  1.509E-14,  2.391E+02,  1.820E+01, 255
2019-348T15:27:29.861,   1, 180,   1,   120,   4,          0,     46.364,  99218.184,    90.412,   -17.044,    23.959,   188.612, 2, 5.486E-04, -1.00,   2,  4.876E-03,  7.693E-05,  1.457E-13,  1.490E-14,  1.865E+02,  1.907E+01, 255
2019-348T15:29:29.862,   1, 180,   1,   120,   4,          0,     46.364,  99218.184,    90.407,   -17.044,    23.959,   187.403, 2, 5.486E-04, -1.00,   2,  5.057E-03,  7.814E-05,  9.238E-14,  1.467E-14,  1.140E+02,  1.810E+01, 255
2019-348T15:31:29.864,   1, 180,   1,   120,   4,          0,     46.364,  99218.184,    90.403,   -17.043,    23.959,   186.193, 2, 5.486E-04, -1.00,   2,  4.668E-03,  7.814E-05,  1.501E-13,  1.487E-14,  2.007E+02,  1.988E+01, 255
2019-348T15:39:29.869,   1, 180,   1,   120,   4,          0,     46.364,  99218.184,    90.384,   -17.040,    23.959,   181.356, 2, 5.486E-04, -1.00,   2,  4.152E-03,  7.365E-05,  1.327E-13,  1.494E-14,  1.994E+02,  2.247E+01, 255
2019-348T15:41:29.870,   1, 180,   1,   120,   4,          0,     46.364,  99218.184,    90.380,   -17.039,    23.959,   180.147, 2, 5.486E-04, -1.00,   2,  4.447E-03,  7.323E-05,  2.014E-13,  1.516E-14,  2.827E+02,  2.127E+01, 255
2019-348T15:43:29.872,   1, 180,   1,   120,   4,          0,     46.364,  99218.184,    90.375,   -17.039,    23.959,   178.938, 2, 5.486E-04, -1.00,   2,  7.214E-03,  8.522E-05,  2.551E-13,  1.484E-14,  2.207E+02,  1.284E+01, 255
2019-348T15:45:29.873,   1, 180,   1,   120,   4,          0,     46.364,  99218.184,    90.370,   -17.038,    23.959,   177.728, 2, 5.486E-04, -1.00,   2,  8.708E-03,  9.015E-05,  3.554E-13,  1.548E-14,  2.547E+02,  1.109E+01, 255
2019-348T15:47:29.875,   1, 180,   1,   120,   4,          0,     46.364,  99218.184,    90.366,   -17.037,    23.959,   176.519, 2, 5.486E-04, -1.00,   2,  8.485E-03,  9.062E-05,  2.578E-13,  1.502E-14,  1.896E+02,  1.105E+01, 255
2019-348T15:49:29.876,   1, 180,   1,   120,   4,          0,     46.364,  99218.184,    90.361,   -17.037,    23.959,   175.310, 2, 5.486E-04, -1.00,   2,  7.788E-03,  8.842E-05,  2.426E-13,  1.493E-14,  1.944E+02,  1.197E+01, 255
2019-348T15:51:29.877,   1, 180,   1,   120,   4,          0,     46.364,  99218.184,    90.357,   -17.036,    23.959,   174.100, 2, 5.486E-04, -1.00,   2,  7.856E-03,  9.045E-05,  2.554E-13,  1.500E-14,  2.029E+02,  1.191E+01, 255
2019-348T15:53:29.879,   1, 180,   1,   120,   4,          0,     46.364,  99218.184,    90.352,   -17.035,    23.959,   172.891, 2, 5.486E-04, -1.00,   2,  7.717E-03,  8.831E-05,  2.148E-13,  1.478E-14,  1.737E+02,  1.195E+01, 255
2019-348T15:55:29.880,   1, 180,   1,   120,   4,          0,     46.364,  99218.184,    90.347,   -17.035,    23.959,   171.682, 2, 5.486E-04, -1.00,   2,  7.883E-03,  9.175E-05,  2.270E-13,  1.513E-14,  1.798E+02,  1.198E+01, 255
2019-348T15:57:29.881,   1, 180,   1,   120,   4,          0,     46.364,  99218.184,    90.343,   -17.034,    23.959,   170.472, 2, 5.486E-04, -1.00,   2,  7.127E-03,  8.957E-05,  2.670E-13,  1.537E-14,  2.338E+02,  1.346E+01, 255
2019-348T15:59:29.883,   1, 180,   1,   120,   4,          0,     46.364,  99218.184,    90.338,   -17.033,    23.959,   169.263, 2, 5.486E-04, -1.00,   2,  7.376E-03,  9.114E-05,  2.267E-13,  1.499E-14,  1.918E+02,  1.268E+01, 255
2019-348T16:01:29.884,   1, 180,   1,   120,   4,          0,     46.364,  99218.184,    90.334,   -17.033,    23.959,   168.054, 2, 5.486E-04, -1.00,   2,  6.942E-03,  8.646E-05,  2.214E-13,  1.516E-14,  1.991E+02,  1.363E+01, 255
2019-348T16:03:29.885,   1, 180,   1,   120,   4,          0,     46.364,  99218.184,    90.329,   -17.032,    23.959,   166.844, 2, 5.486E-04, -1.00,   2,  6.890E-03,  8.638E-05,  1.214E-13,  1.403E-14,  1.100E+02,  1.271E+01, 255
2019-348T16:05:29.887,   1, 180,   1,   120,   4,          0,     46.364,  99218.184,    90.324,   -17.031,    23.959,   165.635, 2, 5.486E-04, -1.00,   2,  6.828E-03,  8.507E-05,  1.912E-13,  1.438E-14,  1.748E+02,  1.315E+01, 255
2019-348T16:07:29.888,   1, 180,   1,   120,   4,          0,     46.364,  99218.184,    90.320,   -17.031,    23.959,   164.426, 2, 5.486E-04, -1.00,   2,  7.117E-03,  8.527E-05,  2.435E-13,  1.466E-14,  2.136E+02,  1.286E+01, 255
2019-348T16:09:29.890,   1, 180,   1,   120,   4,          0,     46.364,  99218.184,    90.315,   -17.030,    23.959,   163.217, 2, 5.486E-04, -1.00,   2,  7.328E-03,  8.924E-05,  1.586E-13,  1.438E-14,  1.351E+02,  1.225E+01, 255
2019-348T16:11:29.891,   1, 180,   1,   120,   4,          0,     46.364,  99218.184,    90.311,   -17.029,    23.959,   162.007, 2, 5.486E-04, -1.00,   2,  7.172E-03,  8.764E-05,  2.287E-13,  1.473E-14,  1.990E+02,  1.282E+01, 255
2019-348T16:13:29.892,   1, 180,   1,   120,   4,          0,     46.364,  99218.184,    90.306,   -17.028,    23.959,   160.798, 2, 5.486E-04, -1.00,   2,  6.545E-03,  8.581E-05,  1.623E-13,  1.534E-14,  1.548E+02,  1.463E+01, 255
2019-348T16:15:29.894,   1, 180,   1,   120,   4,          0,     46.364,  99218.184,    90.301,   -17.028,    23.959,   159.589, 2, 5.486E-04, -1.00,   2,  6.942E-03,  8.627E-05,  2.145E-13,  1.424E-14,  1.929E+02,  1.280E+01, 255
2019-348T16:17:29.895,   1, 180,   1,   120,   4,          0,     46.364,  99218.184,    90.297,   -17.027,    23.959,   158.379, 2, 5.486E-04, -1.00,   2,  6.676E-03,  8.799E-05,  8.489E-14,  1.430E-14,  7.936E+01,  1.336E+01, 255
2019-348T16:19:29.896,   1, 180,   1,   120,   4,          0,     46.364,  99218.184,    90.292,   -17.026,    23.959,   157.170, 2, 5.486E-04, -1.00,   2,  7.047E-03,  8.850E-05,  2.314E-13,  1.472E-14,  2.050E+02,  1.303E+01, 255
2019-348T16:21:29.898,   1, 180,   1,   120,   4,          0,     46.364,  99218.184,    90.287,   -17.026,    23.959,   155.961, 2, 5.486E-04, -1.00,   2,  7.134E-03,  8.932E-05,  1.844E-13,  1.496E-14,  1.614E+02,  1.308E+01, 255
2019-348T16:23:29.899,   1, 180,   1,   120,   4,          0,     46.364,  99218.184,    90.283,   -17.025,    23.959,   154.751, 2, 5.486E-04, -1.00,   2,  6.975E-03,  8.532E-05,  1.865E-13,  1.433E-14,  1.668E+02,  1.282E+01, 255
2019-348T16:25:29.901,   1, 180,   1,   120,   4,          0,     46.364,  99218.184,    90.278,   -17.024,    23.959,   153.542, 2, 5.486E-04, -1.00,   2,  6.041E-03,  7.821E-05,  2.146E-13,  1.421E-14,  2.217E+02,  1.468E+01, 255
2019-348T16:27:29.902,   1, 180,   1,   120,   4,          0,     46.364,  99218.184,    90.274,   -17.024,    23.959,   152.333, 2, 5.486E-04, -1.00,   2,  5.507E-03,  7.825E-05,  1.575E-13,  1.483E-14,  1.785E+02,  1.681E+01, 255
2019-348T16:29:29.903,   1, 180,   1,   120,   4,          0,     46.364,  99218.184,    90.269,   -17.023,    23.959,   151.124, 2, 5.486E-04, -1.00,   2,  5.019E-03,  7.603E-05,  1.879E-13,  1.519E-14,  2.337E+02,  1.889E+01, 255
2019-348T16:31:29.905,   1, 180,   1,   120,   4,          0,     46.364,  99218.184,    90.264,   -17.022,    23.959,   149.914, 2, 5.486E-04, -1.00,   2,  5.069E-03,  7.796E-05,  1.937E-13,  1.531E-14,  2.385E+02,  1.885E+01, 255
2019-348T16:33:29.906,   1, 180,   1,   120,   4,          0,     46.364,  99218.184,    90.260,   -17.022,    23.959,   148.705, 2, 5.486E-04, -1.00,   2,  4.875E-03,  7.513E-05,  1.571E-13,  1.475E-14,  2.011E+02,  1.888E+01, 255
2019-348T16:35:29.907,   1, 180,   1,   120,   4,          0,     46.364,  99218.184,    90.255,   -17.021,    23.959,   147.496, 2, 5.486E-04, -1.00,   2,  5.229E-03,  7.716E-05,  2.253E-13,  1.507E-14,  2.690E+02,  1.799E+01, 255
2019-348T16:37:29.909,   1, 180,   1,   120,   4,          0,     46.364,  99218.184,    90.251,   -17.020,    23.959,   146.286, 2, 5.486E-04, -1.00,   2,  5.114E-03,  7.562E-05,  2.219E-13,  1.518E-14,  2.708E+02,  1.853E+01, 255
2019-348T16:39:29.910,   1, 180,   1,   120,   4,          0,     46.364,  99218.184,    90.246,   -17.019,    23.959,   145.077, 2, 5.486E-04, -1.00,   2,  5.103E-03,  7.826E-05,  1.855E-13,  1.558E-14,  2.269E+02,  1.906E+01, 255
2019-348T16:41:29.911,   1, 180,   1,   120,   4,          0,     46.364,  99218.184,    90.241,   -17.019,    23.959,   143.868, 2, 5.486E-04, -1.00,   2,  5.239E-03,  7.849E-05,  8.541E-14,  1.462E-14,  1.018E+02,  1.742E+01, 255
2019-348T16:43:29.913,   1, 180,   1,   120,   4,          0,     46.364,  99218.184,    90.237,   -17.018,    23.959,   142.658, 2, 5.486E-04, -1.00,   2,  5.114E-03,  7.862E-05,  2.318E-13,  1.513E-14,  2.829E+02,  1.846E+01, 255
2019-348T16:45:29.914,   1, 180,   1,   120,   4,          0,     46.364,  99218.184,    90.232,   -17.017,    23.959,   141.449, 2, 5.486E-04, -1.00,   2,  4.114E-03,  7.285E-05,  1.596E-13,  1.510E-14,  2.422E+02,  2.290E+01, 255
2019-348T16:47:29.916,   1, 180,   1,   120,   4,          0,     46.364,  99218.184,    90.227,   -17.017,    23.959,   140.240, 2, 5.486E-04, -1.00,   2,  4.030E-03,  7.164E-05,  1.912E-13,  1.485E-14,  2.962E+02,  2.300E+01, 255
2019-348T16:49:29.917,   1, 180,   1,   120,   4,          0,     46.364,  99218.184,    90.223,   -17.016,    23.959,   139.030, 2, 5.486E-04, -1.00,   2,  4.242E-03,  7.416E-05,  1.595E-13,  1.553E-14,  2.347E+02,  2.284E+01, 255
2019-348T16:51:29.918,   1, 180,   1,   120,   4,          0,     46.364,  99218.184,    90.218,   -17.015,    23.959,   137.821, 2, 5.486E-04, -1.00,   2,  4.424E-03,  7.443E-05,  1.923E-13,  1.501E-14,  2.713E+02,  2.118E+01, 255
2019-348T16:53:29.920,   1, 180,   1,   120,   4,          0,     46.364,  99218.184,    90.214,   -17.015,    23.959,   136.612, 2, 5.486E-04, -1.00,   2,  4.226E-03,  7.203E-05,  1.768E-13,  1.511E-14,  2.611E+02,  2.232E+01, 255
2019-348T16:55:29.921,   1, 180,   1,   120,   4,          0,     46.364,  99218.184,    90.209,   -17.014,    23.959,   135.403, 2, 5.486E-04, -1.00,   2,  4.238E-03,  7.228E-05,  1.620E-13,  1.519E-14,  2.386E+02,  2.237E+01, 255
2019-348T16:57:29.922,   1, 180,   1,   120,   4,          0,     46.364,  99218.184,    90.204,   -17.013,    23.959,   134.193, 2, 5.486E-04, -1.00,   2,  4.433E-03,  7.358E-05,  2.181E-13,  1.518E-14,  3.071E+02,  2.138E+01, 255
2019-348T16:59:29.924,   1, 180,   1,   120,   4,          0,     46.364,  99218.184,    90.200,   -17.013,    23.959,   132.984, 2, 5.486E-04, -1.00,   2,  4.362E-03,  7.434E-05,  1.698E-13,  1.493E-14,  2.429E+02,  2.136E+01, 255
2019-348T17:01:29.925,   1, 180,   1,   120,   4,          0,     46.364,  99218.184,    90.195,   -17.012,    23.958,   131.775, 2, 5.486E-04, -1.00,   2,  4.579E-03,  7.485E-05,  1.315E-13,  1.498E-14,  1.792E+02,  2.042E+01, 255
2019-348T17:03:29.927,   1, 180,   1,   120,   4,          0,     46.364,  99218.184,    90.190,   -17.011,    23.958,   130.565, 2, 5.486E-04, -1.00,   2,  4.512E-03,  7.431E-05,  1.921E-13,  1.473E-14,  2.657E+02,  2.037E+01, 255
2019-348T17:05:29.928,   1, 180,   1,   120,   4,          0,     46.364,  99218.184,    90.186,   -17.011,    23.958,   129.356, 2, 5.486E-04, -1.00,   2,  4.208E-03,  7.257E-05,  1.761E-13,  1.502E-14,  2.613E+02,  2.228E+01, 255
2019-348T17:07:29.929,   1, 180,   1,   120,   4,          0,     46.364,  99218.184,    90.181,   -17.010,    23.958,   128.147, 2, 5.486E-04, -1.00,   2,  4.091E-03,  7.313E-05,  1.089E-13,  1.483E-14,  1.661E+02,  2.263E+01, 255
2019-348T17:09:29.931,   1, 180,   1,   120,   4,          0,     46.364,  99218.184,    90.176,   -17.009,    23.958,   126.937, 2, 5.486E-04, -1.00,   2,  4.339E-03,  7.342E-05,  2.138E-13,  1.523E-14,  3.076E+02,  2.191E+01, 255
2019-348T17:11:29.932,   1, 180,   1,   120,   4,          0,     46.364,  99218.184,    90.172,   -17.008,    23.958,   125.728, 2, 5.486E-04, -1.00,   2,  4.755E-03,  7.529E-05,  1.387E-13,  1.481E-14,  1.821E+02,  1.944E+01, 255
2019-348T17:13:29.933,   1, 180,   1,   120,   4,          0,     46.364,  99218.184,    90.167,   -17.008,    23.958,   124.519, 2, 5.486E-04, -1.00,   2,  3.843E-03,  6.914E-05,  1.007E-13,  1.474E-14,  1.636E+02,  2.394E+01, 255
2019-348T17:15:29.935,   1, 180,   1,   120,   4,          0,     46.364,  99218.184,    90.163,   -17.007,    23.958,   123.310, 2, 5.486E-04, -1.00,   2,  3.872E-03,  7.009E-05,  1.424E-13,  1.494E-14,  2.295E+02,  2.409E+01, 255
2019-348T17:17:29.936,   1, 180,   1,   120,   4,          0,     46.364,  99218.184,    90.158,   -17.006,    23.958,   122.100, 2, 5.486E-04, -1.00,   2,  4.173E-03,  7.173E-05,  1.573E-13,  1.510E-14,  2.353E+02,  2.259E+01, 255
2019-348T17:19:29.938,   1, 180,   1,   120,   4,          0,     46.364,  99218.184,    90.153,   -17.006,    23.958,   120.891, 2, 5.486E-04, -1.00,   2,  4.500E-03,  7.446E-05,  1.391E-13,  1.453E-14,  1.929E+02,  2.016E+01, 255
2019-348T17:21:29.939,   1, 180,   1,   120,   4,          0,     46.364,  99218.184,    90.149,   -17.005,    23.958,   119.682, 2, 5.486E-04, -1.00,   2,  4.295E-03,  7.116E-05,  2.449E-13,  1.517E-14,  3.558E+02,  2.204E+01, 255
2019-348T17:23:29.940,   1, 180,   1,   120,   4,          0,     46.364,  99218.184,    90.144,   -17.004,    23.958,   118.472, 2, 5.486E-04, -1.00,   2,  4.497E-03,  7.611E-05,  1.558E-13,  1.448E-14,  2.162E+02,  2.010E+01, 255
2019-348T17:25:29.942,   1, 180,   1,   120,   4,          0,     46.364,  99218.184,    90.139,   -17.004,    23.958,   117.263, 2, 5.486E-04, -1.00,   2,  3.953E-03,  7.116E-05,  1.736E-13,  1.536E-14,  2.742E+02,  2.426E+01, 255
2019-348T17:27:29.943,   1, 180,   1,   120,   4,          0,     46.364,  99218.184,    90.135,   -17.003,    23.958,   116.054, 2, 5.486E-04, -1.00,   2,  4.222E-03,  7.270E-05,  1.385E-13,  1.506E-14,  2.047E+02,  2.226E+01, 255
2019-348T17:29:29.944,   1, 180,   1,   120,   4,          0,     46.364,  99218.184,    90.130,   -17.002,    23.958,   114.844, 2, 5.486E-04, -1.00,   2,  3.982E-03,  7.122E-05,  1.511E-13,  1.453E-14,  2.369E+02,  2.277E+01, 255
2019-348T17:33:29.947,   1, 180,   1,   120,   4,          0,     46.364,  99218.184,    90.121,   -17.001,    23.958,   112.426, 2, 5.486E-04, -1.00,   2,  4.003E-03,  7.235E-05,  6.562E-14,  1.441E-14,  1.023E+02,  2.247E+01, 255
2019-348T17:35:29.948,   1, 180,   1,   120,   4,          0,     46.364,  99218.184,    90.116,   -17.000,    23.958,   111.216, 2, 5.486E-04, -1.00,   2,  4.125E-03,  7.180E-05,  1.196E-13,  1.429E-14,  1.810E+02,  2.161E+01, 255
2019-348T17:37:29.950,   1, 180,   1,   120,   4,          0,     46.364,  99218.184,    90.112,   -16.999,    23.958,   110.007, 2, 5.486E-04, -1.00,   2,  4.190E-03,  7.211E-05,  1.344E-13,  1.424E-14,  2.002E+02,  2.121E+01, 255
2019-348T17:39:29.951,   1, 180,   1,   120,   4,          0,     46.364,  99218.184,    90.107,   -16.999,    23.958,   108.798, 2, 5.486E-04, -1.00,   2,  3.821E-03,  7.126E-05,  9.072E-14,  1.511E-14,  1.482E+02,  2.468E+01, 255
2019-348T17:41:29.953,   1, 180,   1,   120,   4,          0,     46.364,  99218.184,    90.102,   -16.998,    23.958,   107.589, 2, 5.486E-04, -1.00,   2,  4.180E-03,  7.203E-05,  1.220E-13,  1.488E-14,  1.821E+02,  2.221E+01, 255
2019-348T17:43:29.954,   1, 180,   1,   120,   4,          0,     46.364,  99218.184,    90.098,   -16.997,    23.958,   106.379, 2, 5.486E-04, -1.00,   2,  4.334E-03,  7.378E-05,  2.243E-13,  1.562E-14,  3.230E+02,  2.249E+01, 255
2019-348T17:45:29.955,   1, 180,   1,   120,   4,          0,     46.364,  99218.184,    90.093,   -16.997,    23.958,   105.170, 2, 5.486E-04, -1.00,   2,  4.093E-03,  7.302E-05,  5.638E-14,  1.452E-14,  8.598E+01,  2.214E+01, 255
2019-348T17:47:29.957,   1, 180,   1,   120,   4,          0,     46.364,  99218.184,    90.088,   -16.996,    23.958,   103.961, 2, 5.486E-04, -1.00,   2,  3.818E-03,  6.993E-05,  1.494E-13,  1.491E-14,  2.442E+02,  2.437E+01, 255
2019-348T17:49:29.958,   1, 180,   1,   120,   4,          0,     46.364,  99218.184,    90.084,   -16.995,    23.958,   102.751, 2, 5.486E-04, -1.00,   2,  3.581E-03,  6.876E-05,  8.009E-14,  1.419E-14,  1.396E+02,  2.473E+01, 255
2019-348T17:51:29.959,   1, 180,   1,   120,   4,          0,     46.364,  99218.184,    90.079,   -16.995,    23.958,   101.542, 2, 5.486E-04, -1.00,   2,  3.793E-03,  6.968E-05,  1.533E-13,  1.557E-14,  2.523E+02,  2.563E+01, 255
2019-348T17:53:29.961,   1, 180,   1,   120,   4,          0,     46.364,  99218.184,    90.074,   -16.994,    23.958,   100.333, 2, 5.486E-04, -1.00,   2,  4.110E-03,  7.231E-05,  1.797E-13,  1.528E-14,  2.728E+02,  2.320E+01, 255
2019-348T17:55:29.962,   1, 180,   1,   120,   4,          0,     46.364,  99218.184,    90.070,   -16.993,    23.958,    99.123, 2, 5.486E-04, -1.00,   2,  4.103E-03,  7.241E-05,  1.268E-13,  1.575E-14,  1.929E+02,  2.396E+01, 255
2019-348T17:57:29.963,   1, 180,   1,   120,   4,          0,     46.364,  99218.184,    90.065,   -16.993,    23.958,    97.914, 2, 5.486E-04, -1.00,   2,  3.918E-03,  7.009E-05,  1.358E-13,  1.528E-14,  2.163E+02,  2.434E+01, 255
2019-348T17:59:29.965,   1, 180,   1,   120,   4,          0,     46.364,  99218.184,    90.061,   -16.992,    23.958,    96.705, 2, 5.486E-04, -1.00,   2,  3.871E-03,  6.989E-05,  1.085E-13,  1.486E-14,  1.750E+02,  2.396E+01, 255
2019-348T18:07:29.970,   1, 180,   1,   120,   4,          0,     46.364,  99218.184,    90.042,   -16.989,    23.958,    91.868, 2, 5.486E-04, -1.00,   2,  3.924E-03,  7.021E-05,  1.351E-13,  1.496E-14,  2.149E+02,  2.380E+01, 255